Weather History for Windom, MN

Change the Weather History Date:

Wednesday, October 5, 2011

  Actual Average Record
Temperature  
Mean Temperature 76 °F -  
Max Temperature 89 °F 66 °F 91 °F (1963)
Min Temperature 64 °F 40 °F 22 °F (1952)
Cooling Degree Days 12    
Growing Degree Days 26 (Base 50)    
Moisture  
Dew Point 45 °F    
Average Humidity 37    
Maximum Humidity 59    
Minimum Humidity 17    
Precipitation  
Precipitation 0.00 in - - ()
Sea Level Pressure  
Sea Level Pressure 30.02 in    
Wind  
Wind Speed 10 mph (South)    
Max Wind Speed 22 mph    
Max Gust Speed 29 mph    
Visibility 10 miles    
Events      
Averages and records for this station are not official NWS values.
T = Trace of Precipitation, MM = Missing Value Source: NWS Daily Summary

Daily Weather History Graph

Daily Weather History Graph

Search for Another Location

Airport:

Trip Planner

Search our weather history database for the weather conditions in past years. The results will help you decide how hot, cold, wet, or windy it might be!

Date:

Astronomy

Oct. 05, 2011 Rise Set
Actual Time 7:22 AM CDT 6:54 PM CDT
Civil Twilight 6:53 AM CDT 7:23 PM CDT
Nautical Twilight 6:20 AM CDT 7:56 PM CDT
Astronomical Twilight 5:46 AM CDT 8:30 PM CDT
Moon 3:46 PM CDT (10/5) 12:57 AM CDT (10/5)
Length of Visible Light 12h 29m
Length of Day
11h 32m
Waxing Gibbous, 66% of the Moon is Illuminated
Oct 5
Waxing Gibbous
Oct 11
Full
Oct 19
Last Quarter
Oct 26
New
Nov 2
First Quarter

Hourly Weather History & Observations

Time (CDT) Temp. Dew Point Humidity Pressure Visibility Wind Dir Wind Speed Gust Speed Precip Events Conditions
12:12 AM 71.6 °F 50.0 °F 46% 30.02 in 10.0 mi SSE 8.1 mph - N/A   Clear
12:33 AM 71.6 °F 50.0 °F 46% 30.02 in 10.0 mi South 9.2 mph - N/A   Clear
12:52 AM 71.6 °F 50.0 °F 46% 30.02 in 10.0 mi South 10.4 mph - N/A   Clear
1:12 AM 71.6 °F 50.0 °F 46% 30.02 in 10.0 mi South 10.4 mph 16.1 mph N/A   Clear
1:33 AM 69.8 °F 51.8 °F 53% 30.02 in 10.0 mi South 8.1 mph - N/A   Clear
1:52 AM 69.8 °F 51.8 °F 53% 30.03 in 10.0 mi South 8.1 mph - N/A   Clear
2:12 AM 68.0 °F 51.8 °F 56% 30.03 in 10.0 mi South 8.1 mph - N/A   Clear
2:33 AM 68.0 °F 51.8 °F 56% 30.03 in 10.0 mi South 8.1 mph - N/A   Clear
2:52 AM 68.0 °F 51.8 °F 56% 30.03 in 10.0 mi South 8.1 mph - N/A   Clear
3:12 AM 69.8 °F 51.8 °F 53% 30.03 in 10.0 mi South 8.1 mph - N/A   Clear
3:33 AM 69.8 °F 51.8 °F 53% 30.03 in 10.0 mi South 9.2 mph - N/A   Clear
3:52 AM 71.6 °F 50.0 °F 46% 30.02 in 10.0 mi South 12.7 mph - N/A   Clear
4:12 AM 69.8 °F 50.0 °F 49% 30.03 in 10.0 mi South 11.5 mph - N/A   Clear
4:33 AM 69.8 °F 50.0 °F 49% 30.03 in 10.0 mi South 10.4 mph - N/A   Clear
5:12 AM 68.0 °F 50.0 °F 52% 30.03 in 10.0 mi South 12.7 mph - N/A   Clear
5:33 AM 66.2 °F 50.0 °F 56% 30.03 in 10.0 mi SSW 9.2 mph - N/A   Clear
6:12 AM 66.2 °F 50.0 °F 56% 30.04 in 10.0 mi South 8.1 mph - N/A   Clear
6:33 AM 66.2 °F 50.0 °F 56% 30.04 in 10.0 mi South 4.6 mph - N/A   Clear
6:52 AM 64.4 °F 50.0 °F 59% 30.04 in 10.0 mi South 6.9 mph - N/A   Clear
7:12 AM 64.4 °F 50.0 °F 59% 30.05 in 10.0 mi South 5.8 mph - N/A   Clear
7:33 AM 64.4 °F 50.0 °F 59% 30.05 in 10.0 mi South 8.1 mph - N/A   Clear
7:51 AM 64.4 °F 50.0 °F 59% 30.05 in 10.0 mi South 4.6 mph - N/A   Clear
8:12 AM 64.4 °F 50.0 °F 59% 30.05 in 10.0 mi South 5.8 mph - N/A   Clear
8:32 AM 66.2 °F 50.0 °F 56% 30.05 in 10.0 mi South 5.8 mph - N/A   Clear
8:52 AM 69.8 °F 48.2 °F 46% 30.05 in 10.0 mi South 10.4 mph - N/A   Clear
9:13 AM 71.6 °F 48.2 °F 43% 30.05 in 10.0 mi South 15.0 mph - N/A   Clear
9:32 AM 73.4 °F 46.4 °F 38% 30.05 in 10.0 mi South 12.7 mph 18.4 mph N/A   Clear
9:52 AM 75.2 °F 46.4 °F 36% 30.05 in 10.0 mi South 12.7 mph 18.4 mph N/A   Clear
10:13 AM 75.2 °F 46.4 °F 36% 30.05 in 10.0 mi South 13.8 mph 18.4 mph N/A   Clear
10:33 AM 78.8 °F 46.4 °F 32% 30.06 in 10.0 mi South 11.5 mph - N/A   Clear
10:52 AM 78.8 °F 46.4 °F 32% 30.05 in 10.0 mi South 12.7 mph - N/A   Clear
11:13 AM 82.4 °F 44.6 °F 26% 30.05 in 10.0 mi South 13.8 mph - N/A   Clear
11:32 AM 82.4 °F 44.6 °F 26% 30.05 in 10.0 mi South 10.4 mph - N/A   Clear
11:52 AM 84.2 °F 44.6 °F 25% 30.05 in 10.0 mi South 9.2 mph - N/A   Clear
12:13 PM 84.2 °F 44.6 °F 25% 30.05 in 10.0 mi South 12.7 mph - N/A   Clear
12:32 PM 86.0 °F 44.6 °F 23% 30.04 in 10.0 mi South 12.7 mph 17.3 mph N/A   Clear
12:53 PM 86.0 °F 44.6 °F 23% 30.04 in 10.0 mi SSE 16.1 mph 19.6 mph N/A   Clear
1:13 PM 87.8 °F 44.6 °F 22% 30.03 in 10.0 mi SSE 9.2 mph 20.7 mph N/A   Clear
1:33 PM 87.8 °F 44.6 °F 22% 30.02 in 10.0 mi SSE 16.1 mph 21.9 mph N/A   Clear
2:13 PM 87.8 °F 42.8 °F 21% 30.01 in 10.0 mi South 15.0 mph 24.2 mph N/A   Clear
2:52 PM 89.6 °F 41.0 °F 18% 30.00 in 10.0 mi South 15.0 mph 26.5 mph N/A   Clear
3:12 PM 87.8 °F 41.0 °F 19% 29.99 in 10.0 mi South 16.1 mph 21.9 mph N/A   Clear
3:32 PM 87.8 °F 39.2 °F 18% 29.99 in 10.0 mi SSE 17.3 mph 24.2 mph N/A   Clear
4:13 PM 87.8 °F 39.2 °F 18% 29.98 in 10.0 mi SSE 21.9 mph 28.8 mph N/A   Clear
4:32 PM 87.8 °F 39.2 °F 18% 29.98 in 10.0 mi SSE 15.0 mph 20.7 mph N/A   Clear
5:12 PM 87.8 °F 39.2 °F 18% 29.97 in 10.0 mi SSE 19.6 mph - N/A   Clear
5:32 PM 86.0 °F 37.4 °F 18% 29.97 in 10.0 mi SE 18.4 mph 26.5 mph N/A   Clear
6:13 PM 84.2 °F 35.6 °F 18% 29.97 in 10.0 mi SE 12.7 mph 17.3 mph N/A   Clear
6:32 PM 82.4 °F 33.8 °F 17% 29.97 in 10.0 mi SE 12.7 mph - N/A   Clear
6:53 PM 80.6 °F 33.8 °F 18% 29.97 in 10.0 mi SE 11.5 mph - N/A   Clear
7:12 PM 78.8 °F 33.8 °F 20% 29.97 in 10.0 mi SE 10.4 mph - N/A   Clear
7:32 PM 75.2 °F 35.6 °F 24% 29.98 in 10.0 mi SSE 10.4 mph - N/A   Clear
7:53 PM 75.2 °F 35.6 °F 24% 29.98 in 10.0 mi SSE 10.4 mph - N/A   Clear
8:13 PM 73.4 °F 35.6 °F 25% 29.98 in 10.0 mi SSE 10.4 mph - N/A   Clear
8:32 PM 73.4 °F 35.6 °F 25% 29.99 in 10.0 mi SE 10.4 mph - N/A   Clear
8:53 PM 71.6 °F 37.4 °F 29% 29.99 in 10.0 mi SE 9.2 mph - N/A   Clear
9:12 PM 69.8 °F 37.4 °F 31% 30.00 in 10.0 mi SSE 9.2 mph - N/A   Clear
9:32 PM 69.8 °F 39.2 °F 33% 30.00 in 10.0 mi SSE 11.5 mph - N/A   Clear
9:53 PM 69.8 °F 39.2 °F 33% 30.01 in 10.0 mi SSE 10.4 mph - N/A   Clear
10:12 PM 68.0 °F 41.0 °F 37% 30.01 in 10.0 mi SSE 9.2 mph - N/A   Clear
10:32 PM 68.0 °F 41.0 °F 37% 30.01 in 10.0 mi SSE 9.2 mph - N/A   Clear
10:53 PM 69.8 °F 41.0 °F 35% 30.01 in 10.0 mi SSE 11.5 mph - N/A   Clear
11:12 PM 68.0 °F 41.0 °F 37% 30.01 in 10.0 mi SSE 10.4 mph - N/A   Clear
11:32 PM 68.0 °F 41.0 °F 37% 30.01 in 10.0 mi SSE 11.5 mph - N/A   Clear
11:53 PM 66.2 °F 42.8 °F 43% 30.01 in 10.0 mi SSE 10.4 mph - N/A   Clear